TimeCST,TemperatureF,Dew PointF,Humidity,Sea Level PressureIn,VisibilityMPH,Wind Direction,Wind SpeedMPH,Gust SpeedMPH,PrecipitationIn,Events,Conditions,WindDirDegrees,DateUTC
12:15 AM,21.2,15.8,80,30.40,10.0,South,4.6,-,N/A,,Clear,170,2013-01-18 06:15:00
12:35 AM,21.2,17.6,86,30.40,10.0,South,5.8,-,N/A,,Clear,170,2013-01-18 06:35:00
12:55 AM,21.2,17.6,86,30.39,10.0,SSE,5.8,-,N/A,,Clear,160,2013-01-18 06:55:00
1:15 AM,23.0,17.6,80,30.39,10.0,South,5.8,-,N/A,,Clear,170,2013-01-18 07:15:00
1:35 AM,24.8,17.6,74,30.38,10.0,SSE,6.9,-,N/A,,Clear,160,2013-01-18 07:35:00
1:55 AM,24.8,17.6,74,30.38,10.0,South,5.8,-,N/A,,Clear,170,2013-01-18 07:55:00
2:15 AM,24.8,17.6,74,30.37,10.0,South,9.2,-,N/A,,Clear,170,2013-01-18 08:15:00
2:35 AM,24.8,17.6,74,30.37,10.0,South,9.2,-,N/A,,Clear,180,2013-01-18 08:35:00
2:55 AM,24.8,19.4,80,30.36,10.0,South,9.2,-,N/A,,Clear,180,2013-01-18 08:55:00
3:15 AM,24.8,19.4,80,30.35,10.0,South,10.4,-,N/A,,Clear,180,2013-01-18 09:15:00
3:35 AM,24.8,19.4,80,30.34,10.0,South,9.2,-,N/A,,Clear,190,2013-01-18 09:35:00
3:55 AM,24.8,19.4,80,30.33,10.0,South,10.4,-,N/A,,Clear,180,2013-01-18 09:55:00
4:15 AM,24.8,19.4,80,30.33,10.0,South,9.2,-,N/A,,Clear,180,2013-01-18 10:15:00
4:35 AM,24.8,19.4,80,30.32,10.0,South,10.4,-,N/A,,Clear,190,2013-01-18 10:35:00
4:55 AM,24.8,19.4,80,30.31,10.0,South,9.2,-,N/A,,Clear,180,2013-01-18 10:55:00
5:15 AM,26.6,19.4,74,30.30,10.0,South,9.2,-,N/A,,Clear,180,2013-01-18 11:15:00
5:35 AM,26.6,21.2,80,30.28,10.0,South,11.5,-,N/A,,Clear,180,2013-01-18 11:35:00
5:55 AM,26.6,21.2,80,30.27,10.0,South,12.7,-,N/A,,Clear,190,2013-01-18 11:55:00
6:15 AM,26.6,21.2,80,30.25,10.0,South,15.0,-,N/A,,Clear,180,2013-01-18 12:15:00
6:35 AM,28.4,21.2,74,30.24,10.0,South,17.3,-,N/A,,Clear,190,2013-01-18 12:35:00
6:55 AM,28.4,23.0,80,30.23,10.0,South,18.4,-,N/A,,Clear,190,2013-01-18 12:55:00
7:15 AM,30.2,23.0,75,30.22,10.0,South,20.7,-,N/A,,Clear,190,2013-01-18 13:15:00
7:35 AM,30.2,23.0,75,30.22,10.0,South,18.4,26.5,N/A,,Clear,190,2013-01-18 13:35:00
7:55 AM,30.2,24.8,80,30.21,10.0,SSW,21.9,27.6,N/A,,Clear,200,2013-01-18 13:55:00
8:15 AM,32.0,24.8,75,30.20,10.0,South,23.0,26.5,N/A,,Clear,190,2013-01-18 14:15:00
8:35 AM,33.8,24.8,70,30.20,10.0,South,21.9,27.6,N/A,,Clear,190,2013-01-18 14:35:00
8:55 AM,33.8,24.8,70,30.20,10.0,SSW,24.2,31.1,N/A,,Clear,200,2013-01-18 14:55:00
9:15 AM,35.6,24.8,65,30.20,10.0,SSW,21.9,28.8,N/A,,Clear,210,2013-01-18 15:15:00
9:35 AM,35.6,24.8,65,30.19,10.0,SSW,21.9,28.8,N/A,,Clear,200,2013-01-18 15:35:00
9:55 AM,37.4,26.6,65,30.18,10.0,SSW,19.6,-,N/A,,Clear,200,2013-01-18 15:55:00
10:15 AM,39.2,26.6,61,30.17,10.0,SSW,19.6,27.6,N/A,,Clear,210,2013-01-18 16:15:00
10:35 AM,42.8,28.4,57,30.15,10.0,SSW,24.2,29.9,N/A,,Clear,210,2013-01-18 16:35:00
10:55 AM,42.8,28.4,57,30.13,10.0,SSW,23.0,33.4,N/A,,Clear,210,2013-01-18 16:55:00
11:15 AM,44.6,28.4,53,30.12,10.0,SSW,25.3,34.5,N/A,,Clear,210,2013-01-18 17:15:00
11:35 AM,46.4,28.4,50,30.09,10.0,SSW,27.6,35.7,N/A,,Clear,210,2013-01-18 17:35:00
11:55 AM,46.4,28.4,50,30.06,10.0,SSW,33.4,39.1,N/A,,Clear,210,2013-01-18 17:55:00
12:15 PM,46.4,28.4,50,30.04,10.0,SSW,29.9,40.3,N/A,,Clear,210,2013-01-18 18:15:00
12:35 PM,48.2,30.2,50,30.02,10.0,SSW,25.3,39.1,N/A,,Clear,210,2013-01-18 18:35:00
12:55 PM,48.2,30.2,50,29.99,10.0,SSW,28.8,39.1,N/A,,Clear,200,2013-01-18 18:55:00
1:15 PM,48.2,30.2,50,29.98,10.0,SSW,31.1,39.1,N/A,,Clear,210,2013-01-18 19:15:00
1:35 PM,50.0,28.4,43,29.97,10.0,SSW,28.8,33.4,N/A,,Clear,210,2013-01-18 19:35:00
1:55 PM,51.8,30.2,44,29.97,10.0,SW,23.0,33.4,N/A,,Clear,220,2013-01-18 19:55:00
2:15 PM,51.8,30.2,44,29.96,10.0,SW,26.5,33.4,N/A,,Clear,220,2013-01-18 20:15:00
2:35 PM,51.8,30.2,44,29.95,10.0,SW,26.5,35.7,N/A,,Clear,220,2013-01-18 20:35:00
2:55 PM,53.6,30.2,41,29.93,10.0,SW,26.5,36.8,N/A,,Clear,220,2013-01-18 20:55:00
3:15 PM,51.8,30.2,44,29.93,10.0,SW,23.0,28.8,N/A,,Clear,220,2013-01-18 21:15:00
3:35 PM,51.8,30.2,44,29.93,10.0,SW,21.9,32.2,N/A,,Clear,230,2013-01-18 21:35:00
3:55 PM,51.8,28.4,41,29.94,10.0,SW,23.0,31.1,N/A,,Clear,230,2013-01-18 21:55:00
4:15 PM,51.8,30.2,44,29.93,10.0,SW,23.0,32.2,N/A,,Clear,230,2013-01-18 22:15:00
4:35 PM,50.0,30.2,47,29.93,10.0,SW,19.6,28.8,N/A,,Clear,220,2013-01-18 22:35:00
4:55 PM,48.2,30.2,50,29.93,10.0,SW,18.4,26.5,N/A,,Clear,220,2013-01-18 22:55:00
5:15 PM,48.2,30.2,50,29.95,10.0,SW,13.8,19.6,N/A,,Clear,220,2013-01-18 23:15:00
5:35 PM,48.2,30.2,50,29.95,10.0,SW,13.8,20.7,N/A,,Clear,220,2013-01-18 23:35:00
5:55 PM,46.4,30.2,53,29.95,10.0,SSW,15.0,-,N/A,,Clear,210,2013-01-18 23:55:00
6:15 PM,46.4,30.2,53,29.95,10.0,SSW,13.8,-,N/A,,Clear,210,2013-01-19 00:15:00
6:35 PM,46.4,30.2,53,29.95,10.0,SSW,17.3,-,N/A,,Clear,210,2013-01-19 00:35:00
6:55 PM,44.6,30.2,57,29.95,10.0,SSW,16.1,19.6,N/A,,Clear,210,2013-01-19 00:55:00
7:15 PM,44.6,30.2,57,29.95,10.0,SSW,16.1,-,N/A,,Clear,210,2013-01-19 01:15:00
7:35 PM,44.6,30.2,57,29.95,10.0,SSW,16.1,-,N/A,,Clear,210,2013-01-19 01:35:00
7:55 PM,42.8,30.2,61,29.94,10.0,SSW,15.0,-,N/A,,Clear,210,2013-01-19 01:55:00
8:15 PM,42.8,30.2,61,29.94,10.0,SSW,15.0,-,N/A,,Clear,210,2013-01-19 02:15:00
8:35 PM,42.8,30.2,61,29.94,10.0,SSW,13.8,-,N/A,,Clear,210,2013-01-19 02:35:00
8:55 PM,42.8,30.2,61,29.94,10.0,SW,15.0,-,N/A,,Clear,220,2013-01-19 02:55:00
9:15 PM,42.8,30.2,61,29.94,10.0,SW,13.8,-,N/A,,Clear,220,2013-01-19 03:15:00
9:35 PM,42.8,30.2,61,29.94,10.0,SW,12.7,-,N/A,,Clear,220,2013-01-19 03:35:00
9:55 PM,42.8,30.2,61,29.94,10.0,SW,13.8,-,N/A,,Clear,220,2013-01-19 03:55:00
10:15 PM,41.0,30.2,65,29.93,10.0,SW,11.5,-,N/A,,Clear,220,2013-01-19 04:15:00
10:35 PM,39.2,30.2,70,29.93,10.0,SW,12.7,-,N/A,,Clear,220,2013-01-19 04:35:00
10:55 PM,39.2,30.2,70,29.93,10.0,SW,11.5,-,N/A,,Clear,220,2013-01-19 04:55:00
11:15 PM,39.2,30.2,70,29.93,10.0,SW,10.4,-,N/A,,Clear,220,2013-01-19 05:15:00
11:35 PM,39.2,28.4,65,29.93,10.0,SW,9.2,-,N/A,,Clear,220,2013-01-19 05:35:00
11:55 PM,37.4,30.2,75,29.93,10.0,SSW,10.4,-,N/A,,Clear,210,2013-01-19 05:55:00